Date,TemperatureHighF,TemperatureAvgF,TemperatureLowF,DewpointHighF,DewpointAvgF,DewpointLowF,HumidityHigh,HumidityAvg,HumidityLow,PressureMaxIn,PressureMinIn,WindSpeedMaxMPH,WindSpeedAvgMPH,GustSpeedMaxMPH,PrecipitationSumIn
2013-1-1,38,34,27,32,29,20,84,79,71,30.02,29.88,14,2,16,0.00
2013-1-2,30,26,22,20,17,15,79,71,60,30.22,29.99,15,3,17,0.00
2013-1-3,32,26,18,23,18,14,85,72,60,30.23,30.11,12,1,12,0.00
2013-1-4,37,32,30,26,24,22,77,70,61,30.14,30.02,21,4,21,0.00
2013-1-5,37,31,27,26,23,21,83,72,62,30.35,30.08,17,3,19,0.00
2013-1-6,45,36,28,33,30,24,97,77,59,30.20,29.99,15,2,16,0.00
2013-1-7,42,36,30,32,30,25,83,75,61,30.40,30.10,15,2,15,0.00
2013-1-8,45,34,27,34,29,24,94,80,65,30.39,30.34,10,1,10,0.00
2013-1-9,43,35,25,37,32,23,98,90,66,30.37,30.18,12,1,12,0.01
2013-1-10,47,40,36,32,30,28,80,68,54,30.56,30.31,13,2,14,0.00
2013-1-11,43,39,34,40,34,28,100,85,69,30.49,30.08,17,2,17,0.37
2013-1-12,49,42,38,48,42,38,100,99,93,30.17,30.08,7,0,7,0.01
2013-1-13,46,44,41,46,44,41,100,100,100,30.12,29.95,12,2,13,0.00
2013-1-14,51,46,38,50,42,35,100,87,64,30.28,29.89,16,2,16,0.20
2013-1-15,38,35,32,37,32,28,98,86,74,30.34,30.17,7,0,9,0.35
2013-1-16,34,32,31,34,32,31,100,100,97,30.17,29.83,7,0,7,0.40
2013-1-17,38,36,33,36,31,29,100,85,73,30.12,29.94,15,2,15,0.07
2013-1-18,34,29,25,29,17,10,82,62,45,30.46,30.01,25,4,25,0.00
2013-1-19,52,38,26,32,26,14,80,63,42,30.37,29.88,16,5,18,0.00
2013-1-20,51,39,25,33,24,15,70,57,30,30.07,29.75,24,6,27,0.00
2013-1-21,30,25,19,24,16,12,93,69,59,30.10,29.86,18,3,18,0.00
2013-1-22,22,14,10,14,0,-3,73,54,43,30.27,29.92,25,8,29,0.00
2013-1-23,19,12,8,5,1,-1,74,62,48,30.30,30.16,16,3,17,0.00
2013-1-24,23,17,12,9,5,1,77,59,40,30.48,30.12,26,4,26,0.00
2013-1-25,18,14,9,13,6,1,94,73,53,30.48,30.07,12,2,12,0.00
2013-1-26,26,17,10,15,12,8,94,82,61,30.41,30.08,11,1,13,0.00
2013-1-27,32,23,14,19,15,10,90,73,54,30.57,30.41,9,1,10,0.00
2013-1-28,34,30,26,34,28,18,100,92,68,30.48,30.03,13,2,13,0.18
2013-1-29,55,43,34,51,42,34,100,96,85,30.12,29.97,12,2,13,0.05
2013-1-30,63,53,45,60,52,44,100,98,90,29.97,29.24,31,7,31,1.03
2013-1-31,57,38,27,57,29,13,100,71,49,29.82,29.08,35,9,36,0.64
2013-2-1,27,24,17,17,11,6,71,59,48,30.30,29.80,31,7,32,0.00
2013-2-2,22,18,13,21,12,6,95,78,62,30.33,30.02,16,3,17,0.00
2013-2-3,30,24,18,26,21,13,97,88,67,30.02,29.80,23,1,23,0.03
2013-2-4,30,24,19,22,14,10,86,67,55,30.04,29.90,21,4,23,0.00
2013-2-5,33,28,25,29,26,22,96,90,82,29.94,29.86,6,0,6,0.00
2013-2-6,37,30,24,28,25,18,99,81,64,30.34,29.92,19,2,19,0.01
2013-2-7,32,28,21,24,18,16,84,69,52,30.45,30.25,19,4,19,0.00
2013-2-8,35,33,29,34,30,23,100,92,75,30.25,29.73,22,4,22,0.06
2013-2-9,31,25,20,25,18,13,85,73,62,30.38,29.84,28,8,28,0.00
2013-2-10,38,28,14,24,16,9,86,62,35,30.48,30.24,15,3,16,0.04
2013-2-11,44,37,32,44,36,24,100,94,67,30.24,29.66,21,4,23,0.01
2013-2-12,42,38,27,32,28,24,88,67,57,29.97,29.76,24,6,24,0.00
2013-2-13,42,32,24,32,28,21,99,84,65,29.95,29.68,11,0,12,0.00
2013-2-14,45,35,30,32,30,28,100,84,59,29.98,29.73,13,1,13,0.31
2013-2-15,50,39,32,38,32,28,99,78,54,30.00,29.91,14,2,14,0.10
2013-2-16,33,30,27,32,26,16,100,85,62,29.98,29.81,16,1,16,0.01
2013-2-17,28,24,19,19,11,4,81,58,44,30.13,29.79,29,9,32,0.00
2013-2-18,36,26,17,20,12,6,70,57,37,30.33,30.12,24,5,24,0.00
2013-2-19,39,34,29,38,29,20,98,82,61,30.15,29.69,23,5,23,0.24
2013-2-20,33,26,21,21,15,10,69,62,53,30.08,29.80,26,9,32,0.00
2013-2-21,34,26,21,20,16,12,78,65,54,30.33,30.06,25,6,25,0.00
2013-2-22,32,27,20,29,22,17,89,80,69,30.38,30.22,16,3,16,0.00
2013-2-23,43,36,31,42,36,29,100,99,89,30.23,29.81,7,0,8,0.10
2013-2-24,41,36,30,38,30,22,100,81,62,30.06,29.77,22,4,23,0.00
2013-2-25,46,35,27,31,26,21,81,68,51,30.21,30.06,11,2,13,0.00
2013-2-26,41,35,26,36,30,23,99,83,68,30.23,29.71,36,8,36,0.05
2013-2-27,48,41,36,45,38,35,100,89,70,29.72,29.51,38,5,40,0.21
2013-2-28,43,38,33,36,33,30,96,81,64,29.67,29.58,10,2,18,0.00
2013-3-1,40,37,31,32,30,25,89,76,63,29.84,29.65,14,3,14,0.00
2013-3-2,36,32,29,26,24,22,79,71,60,29.84,29.75,18,4,18,0.00
2013-3-3,34,30,25,24,21,17,78,70,61,29.84,29.75,20,6,20,0.00
2013-3-4,35,30,25,24,20,17,73,67,60,30.00,29.84,26,8,28,0.00
2013-3-5,46,35,28,31,26,21,80,69,53,30.06,29.89,15,3,16,0.00
2013-3-6,39,36,34,35,32,28,92,83,72,29.98,29.75,29,6,33,0.17
2013-3-7,45,38,34,30,27,24,77,66,51,30.12,29.98,15,4,21,0.00
2013-3-8,43,36,31,30,26,22,77,65,58,30.28,30.09,25,6,26,0.00
2013-3-9,61,44,31,30,24,19,71,49,24,30.32,30.23,12,2,12,0.00
2013-3-10,56,46,38,35,26,17,80,45,31,30.31,30.20,20,6,20,0.00
2013-3-11,54,46,37,49,42,34,99,88,66,30.23,29.92,25,10,25,0.00
2013-3-12,54,49,40,54,46,32,100,90,71,29.92,29.70,28,10,29,1.14
2013-3-13,44,39,30,34,28,19,82,64,47,29.98,29.84,23,6,26,0.00
2013-3-14,39,33,27,23,18,15,81,56,40,30.03,29.94,28,9,34,0.00
2013-3-15,51,38,23,35,24,14,68,59,46,30.03,29.73,21,5,21,0.00
2013-3-16,45,34,31,34,30,25,97,84,63,29.92,29.72,13,1,16,0.00
2013-3-17,37,32,28,30,26,22,97,78,58,30.28,29.92,12,1,12,0.12
2013-3-18,33,30,27,32,23,16,97,75,55,30.33,29.89,20,6,21,0.00
2013-3-19,50,38,31,37,31,20,99,79,40,29.90,29.68,26,4,26,0.29
2013-3-20,45,36,30,25,21,19,71,55,36,29.92,29.76,25,6,26,0.00
2013-3-21,35,30,26,23,17,11,77,59,42,29.82,29.70,18,4,21,0.00
2013-3-22,39,31,25,25,21,16,87,68,51,29.96,29.79,29,6,29,0.00
2013-3-23,44,36,30,26,23,21,72,61,46,29.97,29.89,23,6,25,0.00
2013-3-24,45,36,25,28,22,19,80,58,42,29.98,29.65,14,2,14,0.00
2013-3-25,37,34,31,34,30,26,98,89,66,29.67,29.49,16,2,18,0.28
2013-3-26,49,38,32,36,32,27,98,80,46,29.93,29.65,17,2,18,0.13
2013-3-27,48,40,34,34,30,28,82,69,47,30.04,29.92,22,5,22,0.00
2013-3-28,46,40,33,33,30,28,87,69,52,30.17,30.02,15,3,17,0.00
2013-3-29,52,44,38,34,31,28,76,61,44,30.19,30.09,18,4,20,0.00
2013-3-30,56,46,34,33,29,25,76,54,33,30.19,30.07,14,1,14,0.00
2013-3-31,52,45,41,46,37,26,99,75,48,30.09,29.70,23,6,23,0.08
2013-4-1,56,45,34,46,34,14,100,70,35,29.94,29.67,26,6,29,0.01
2013-4-2,42,34,28,20,17,14,65,49,33,30.13,29.94,25,5,29,0.00
2013-4-3,44,35,28,21,16,14,61,47,32,30.33,30.12,26,5,29,0.00
2013-4-4,49,37,23,25,19,14,76,51,33,30.40,30.06,18,3,18,0.00
2013-4-5,60,46,34,34,27,16,88,51,25,30.06,29.77,22,4,23,0.00
2013-4-6,52,40,31,25,21,16,67,46,27,30.31,30.03,13,3,14,0.00
2013-4-7,61,49,37,45,37,25,82,64,52,30.25,29.95,23,9,25,0.00
2013-4-8,76,63,48,55,48,42,81,60,42,30.05,29.90,20,4,20,0.00
2013-4-9,82,71,60,57,53,50,70,54,35,30.00,29.83,20,4,20,0.00
2013-4-10,85,73,59,64,58,53,99,63,43,29.89,29.69,32,3,32,0.55
2013-4-11,71,61,50,63,57,46,99,87,74,29.87,29.75,25,5,26,0.00
2013-4-12,50,45,43,46,44,42,99,96,86,29.86,29.64,29,6,33,0.54
2013-4-13,59,49,41,44,38,35,100,69,46,29.95,29.77,18,2,19,0.00
2013-4-14,62,50,37,38,35,28,90,58,38,30.13,29.95,17,2,17,0.00
2013-4-15,62,52,47,49,42,33,81,67,57,30.29,30.11,18,7,19,0.00
2013-4-16,69,58,50,59,52,46,89,82,69,30.29,30.08,19,7,21,0.00
2013-4-17,71,60,54,57,49,38,99,69,36,30.22,30.07,9,1,10,0.03
2013-4-18,61,57,55,59,51,38,96,80,50,30.23,29.98,22,8,23,0.00
2013-4-19,72,62,49,66,60,46,98,91,79,29.98,29.55,29,10,32,0.87
2013-4-20,55,47,39,46,34,27,89,61,42,30.33,29.73,25,5,25,0.06
2013-4-21,54,42,31,35,27,22,81,55,37,30.58,30.33,15,2,21,0.00
2013-4-22,55,44,32,38,34,30,93,69,47,30.59,30.42,22,6,23,0.00
2013-4-23,59,47,41,46,40,35,95,76,57,30.43,30.10,14,2,14,0.00
2013-4-24,69,55,40,59,50,39,99,84,66,30.10,29.77,23,7,23,0.00
2013-4-25,68,55,0,57,37,0,75,52,33,30.28,29.77,15,3,17,0.00
2013-4-26,63,51,40,39,33,28,78,51,29,30.43,30.28,10,1,12,0.00
2013-4-27,69,55,37,43,36,29,76,50,29,30.42,30.25,12,1,14,0.00
2013-4-28,67,57,44,48,41,35,82,57,37,30.26,30.13,21,4,21,0.03
2013-4-29,56,54,50,56,51,39,98,91,60,30.15,30.06,21,7,21,0.48
2013-4-30,66,58,51,55,50,36,99,77,49,30.28,30.12,14,6,20,0.01
2013-5-1,69,56,39,44,38,30,84,53,28,30.42,30.28,18,4,19,0.00
2013-5-2,71,57,41,50,44,39,96,66,40,30.43,30.28,14,2,14,0.00
2013-5-3,66,57,46,47,42,38,87,61,38,30.39,30.28,19,5,22,0.00
2013-5-4,69,55,38,49,43,38,98,68,42,30.32,30.16,19,3,19,0.00
2013-5-5,66,53,40,46,42,38,94,67,44,30.24,30.13,22,4,22,0.00
2013-5-6,66,54,40,56,48,38,98,83,69,30.21,30.08,14,3,14,0.00
2013-5-7,71,60,52,61,56,50,98,88,66,30.10,29.99,24,6,24,0.27
2013-5-8,70,61,53,63,58,52,99,91,67,30.00,29.88,15,2,17,0.79
2013-5-9,68,59,51,60,56,50,100,92,70,29.95,29.89,9,1,10,0.11
2013-5-10,80,67,55,65,59,54,99,80,47,29.99,29.84,18,2,21,0.52
2013-5-11,72,63,59,66,61,54,99,94,76,29.86,29.67,14,3,16,0.35
2013-5-12,59,54,46,55,40,29,90,60,34,29.97,29.70,27,5,27,0.00
2013-5-13,52,45,37,36,31,26,85,58,37,30.14,29.96,21,3,21,0.00
2013-5-14,60,47,33,46,32,27,92,59,30,30.18,30.02,15,2,16,0.01
2013-5-15,71,58,48,61,52,43,92,80,68,30.05,29.68,17,3,22,0.04
2013-5-16,82,69,57,67,58,49,98,72,36,29.87,29.70,14,2,17,0.08
2013-5-17,76,65,52,51,45,38,68,50,32,30.14,29.87,13,2,13,0.00
2013-5-18,67,61,56,57,52,45,97,74,54,30.23,30.14,16,4,16,0.00
2013-5-19,62,60,57,61,59,56,99,98,95,30.22,30.10,15,4,15,0.06
2013-5-20,82,68,59,71,65,59,100,90,66,30.13,29.93,9,1,9,0.01
2013-5-21,86,74,63,74,69,63,100,86,63,29.95,29.80,16,2,16,0.00
2013-5-22,90,76,66,73,68,63,100,81,46,29.87,29.75,20,2,20,0.00
2013-5-23,76,69,61,70,66,60,99,89,75,29.85,29.69,14,3,16,0.19
2013-5-24,61,53,45,61,48,38,100,86,68,30.07,29.67,26,5,26,0.05
2013-5-25,62,52,44,39,37,36,78,58,39,30.09,30.01,26,7,26,0.00
2013-5-26,69,57,46,41,38,35,73,50,30,30.19,30.06,22,4,23,0.00
2013-5-27,70,58,41,48,42,36,86,58,35,30.25,30.13,10,1,11,0.00
2013-5-28,64,59,54,62,56,46,99,91,66,30.19,30.06,8,1,9,0.43
2013-5-29,87,73,60,71,65,60,100,78,52,30.08,30.00,15,2,17,0.00
2013-5-30,91,79,68,71,68,64,91,70,45,30.12,30.05,10,1,12,0.00
2013-5-31,92,80,68,72,68,61,92,69,41,30.09,29.95,13,2,15,0.00
2013-6-1,90,79,68,72,68,0,92,71,49,29.98,29.85,12,3,13,0.00
2013-6-2,84,77,71,71,68,66,86,75,58,29.85,29.75,18,4,18,0.00
2013-6-3,79,71,62,68,64,58,98,79,56,29.90,29.78,10,2,12,0.22
2013-6-4,74,63,52,58,47,42,87,57,38,30.09,29.90,15,2,15,0.00
2013-6-5,78,65,48,52,48,42,91,58,36,30.18,30.03,12,2,12,0.00
2013-6-6,68,63,60,62,56,49,97,78,57,30.08,29.88,20,6,21,0.33
2013-6-7,64,62,60,64,62,60,100,100,96,29.88,29.61,18,3,19,1.45
2013-6-8,76,66,60,65,62,58,100,88,64,30.07,29.65,10,1,10,0.00
2013-6-9,83,70,56,66,61,55,97,74,50,30.17,30.07,8,1,8,0.00
2013-6-10,74,69,64,72,67,63,100,96,83,30.09,29.73,24,5,25,1.36
2013-6-11,78,71,65,68,66,61,100,83,66,29.77,29.68,20,4,24,0.00
2013-6-12,81,72,63,69,63,60,91,74,55,29.83,29.76,14,2,16,0.00
2013-6-13,82,70,59,72,64,58,100,83,66,29.79,29.38,19,4,19,1.02
2013-6-14,76,64,0,60,56,0,97,76,50,29.94,29.54,17,2,19,0.07
2013-6-15,79,68,56,63,57,50,95,69,46,30.03,29.93,13,1,14,0.00
2013-6-16,80,70,59,70,60,49,93,72,51,29.98,29.80,19,2,21,0.25
2013-6-17,84,74,66,70,67,62,93,79,55,29.91,29.82,15,1,16,0.00
2013-6-18,81,69,64,73,67,63,100,93,74,29.88,29.78,11,1,13,0.22
2013-6-19,80,68,57,63,56,50,98,70,40,30.15,29.87,11,1,14,0.00
2013-6-20,79,68,54,66,60,52,99,78,52,30.24,30.14,14,3,15,0.00
2013-6-21,82,71,58,63,59,54,95,67,47,30.28,30.19,15,3,18,0.00
2013-6-22,86,73,59,70,65,56,94,77,56,30.23,30.08,10,2,11,0.00
2013-6-23,85,76,65,74,70,63,96,82,60,30.16,30.01,10,1,12,0.00
2013-6-24,91,79,68,74,70,66,99,76,46,30.07,29.95,12,2,16,0.00
2013-6-25,90,76,67,74,69,66,97,80,49,29.97,29.82,30,2,35,0.18
2013-6-26,87,75,67,73,69,64,98,82,60,29.86,29.76,10,1,11,0.22
2013-6-27,85,74,66,74,70,66,100,90,67,29.79,29.53,19,3,22,0.51
2013-6-28,84,74,69,72,69,67,98,87,63,29.54,29.44,11,2,12,0.27
2013-6-29,85,74,65,69,66,64,100,79,51,29.70,29.45,13,1,14,0.07
2013-6-30,83,74,66,76,71,65,100,89,76,29.84,29.66,19,3,19,0.00
2013-7-1,80,74,69,74,72,69,99,92,83,29.96,29.81,20,4,23,0.25
2013-7-2,82,76,72,75,73,71,98,91,76,30.12,29.96,16,4,19,0.03
2013-7-3,85,76,71,76,73,70,98,91,70,30.20,30.12,11,3,12,0.01
2013-7-4,88,79,72,76,74,72,99,86,66,30.21,30.11,15,3,15,0.00
2013-7-5,89,81,73,76,74,72,98,80,62,30.17,30.06,14,3,16,0.00
2013-7-6,93,82,72,77,74,71,97,77,56,30.13,30.00,9,1,9,0.00
2013-7-7,90,78,68,76,72,68,97,82,60,30.05,29.93,23,2,24,0.16
2013-7-8,84,74,66,72,68,66,100,85,59,30.05,29.99,19,1,21,0.01
2013-7-9,85,74,68,75,71,68,99,90,71,30.05,29.96,14,1,15,0.70
2013-7-10,87,77,70,77,73,70,100,87,68,29.97,29.80,12,2,14,0.07
2013-7-11,85,76,70,73,68,62,95,78,55,29.90,29.78,12,1,12,0.00
2013-7-12,75,70,66,70,66,62,99,88,77,30.02,29.89,13,1,16,0.54
2013-7-13,84,74,68,74,71,67,99,90,70,30.26,30.01,15,3,16,0.49
2013-7-14,91,80,72,76,74,71,99,82,59,30.32,30.22,9,1,10,0.00
2013-7-15,93,82,72,78,74,71,97,78,52,30.25,30.13,13,1,13,0.00
2013-7-16,94,83,73,76,72,69,99,73,48,30.21,30.12,14,1,14,0.00
2013-7-17,96,82,71,78,71,68,92,71,45,30.19,30.05,7,0,8,0.00
2013-7-18,96,85,76,80,75,70,90,73,48,30.06,29.94,10,1,10,0.00
2013-7-19,95,83,74,80,74,69,95,77,56,29.96,29.77,16,2,16,0.00
2013-7-20,90,80,72,76,72,69,94,77,61,29.83,29.73,16,2,17,0.00
2013-7-21,87,79,73,75,71,68,93,78,60,29.91,29.81,6,0,7,0.00
2013-7-22,86,75,69,77,72,68,100,91,71,29.91,29.74,20,1,22,8.18
2013-7-23,85,76,70,75,71,67,100,86,63,29.74,29.58,13,1,14,0.17
2013-7-24,78,71,61,68,63,53,97,77,54,29.94,29.63,13,2,14,0.00
2013-7-25,74,64,52,65,58,50,95,81,67,30.03,29.92,14,1,14,0.00
2013-7-26,81,71,59,65,61,56,99,73,46,30.06,29.98,9,1,10,0.00
2013-7-27,80,72,64,71,67,61,97,85,69,30.02,29.87,18,3,20,0.41
2013-7-28,82,72,67,72,68,65,98,87,60,29.94,29.85,12,2,12,0.06
2013-7-29,79,70,60,70,60,56,99,74,49,30.11,29.93,12,1,12,0.04
2013-7-30,80,68,58,64,59,55,90,73,53,30.19,30.11,12,1,12,0.00
2013-7-31,80,70,57,68,63,56,98,81,63,30.14,29.98,9,1,10,0.00
2013-8-1,79,70,67,72,68,66,99,93,78,29.98,29.78,12,2,12,0.33
2013-8-2,81,72,63,68,65,60,100,81,56,29.92,29.81,11,1,12,0.00
2013-8-3,76,69,63,69,65,59,96,85,73,29.92,29.85,13,1,14,0.05
2013-8-4,76,68,59,64,59,56,98,76,51,30.00,29.88,17,2,19,0.01
2013-8-5,77,65,55,62,55,51,97,73,45,30.09,29.99,8,0,8,0.00
2013-8-6,73,65,56,66,61,54,97,86,70,30.07,30.01,14,2,14,0.02
2013-8-7,75,69,65,71,68,64,99,95,87,30.07,29.98,12,3,13,0.47
2013-8-8,82,74,68,76,72,68,100,93,77,30.01,29.94,16,2,19,0.30
2013-8-9,82,77,73,77,74,72,99,92,82,29.94,29.80,14,3,15,0.04
2013-8-10,83,73,65,72,67,63,98,81,57,30.03,29.88,10,1,12,0.00
2013-8-11,84,71,59,71,65,58,98,81,59,30.10,29.97,7,0,8,0.25
2013-8-12,86,74,66,72,68,65,100,83,55,30.00,29.88,9,0,9,0.01
2013-8-13,82,72,64,72,68,58,100,88,71,29.88,29.68,13,1,13,2.27
2013-8-14,72,63,55,58,53,48,93,70,54,30.06,29.78,18,3,18,0.00
2013-8-15,77,63,50,61,53,49,98,73,43,30.16,30.06,9,0,10,0.00
2013-8-16,81,66,52,64,56,51,96,73,47,30.18,30.11,5,0,5,0.00
2013-8-17,81,67,54,67,59,53,99,78,48,30.25,30.17,9,0,9,0.00
2013-8-18,72,65,61,65,61,59,98,88,67,30.24,30.13,4,0,4,0.05
2013-8-19,75,66,59,68,63,57,98,89,76,30.15,30.04,8,0,8,0.00
2013-8-20,84,72,61,72,66,61,100,85,55,30.13,30.05,8,0,9,0.01
2013-8-21,88,74,60,75,67,59,98,81,47,30.17,30.02,7,0,9,0.00
2013-8-22,84,76,69,74,71,66,98,86,69,30.04,29.86,10,1,10,0.02
2013-8-23,79,69,59,67,64,57,98,85,57,30.10,29.90,7,0,8,0.00
2013-8-24,80,66,54,65,57,53,98,75,44,30.32,30.10,17,1,18,0.01
2013-8-25,80,68,55,66,59,53,99,75,48,30.39,30.22,10,1,10,0.00
2013-8-26,84,73,60,70,63,54,90,72,59,30.23,29.92,11,2,13,0.00
2013-8-27,86,77,68,73,69,65,92,78,59,29.92,29.83,11,1,11,0.00
2013-8-28,79,72,69,74,71,68,100,95,84,29.86,29.79,7,0,7,0.90
2013-8-29,84,72,66,73,69,66,100,92,68,29.99,29.84,4,0,5,0.00
2013-8-30,86,75,68,74,70,67,98,87,65,29.99,29.82,10,2,12,0.00
2013-8-31,88,76,69,76,72,65,98,88,68,29.84,29.74,16,1,17,0.42
2013-9-1,87,77,70,77,74,69,100,89,68,29.81,29.73,6,0,7,0.00
2013-9-2,87,79,68,77,72,66,99,80,62,29.76,29.66,14,1,15,1.07
2013-9-3,79,71,61,68,62,56,99,77,52,29.91,29.68,19,2,19,0.00
2013-9-4,80,67,56,63,58,54,97,76,49,30.04,29.91,11,1,12,0.00
2013-9-5,78,68,57,63,56,48,88,69,38,30.14,29.95,13,1,13,0.00
2013-9-6,72,59,47,53,46,41,91,66,36,30.25,30.12,11,0,14,0.00
2013-9-7,78,63,47,62,53,45,95,73,42,30.13,29.90,8,0,8,0.00
2013-9-8,80,69,57,68,60,47,96,75,57,30.06,29.85,17,1,17,0.00
2013-9-9,73,60,45,63,55,44,98,82,66,30.20,30.06,9,1,11,0.00
2013-9-10,89,76,65,76,71,63,97,85,62,30.14,30.02,13,2,13,0.00
2013-9-11,92,81,72,80,75,71,98,83,63,30.10,29.95,11,1,12,0.00
2013-9-12,84,73,66,77,71,66,100,93,74,29.95,29.68,31,0,31,0.66
2013-9-13,72,65,55,67,58,50,100,79,51,29.90,29.65,17,2,19,0.01
2013-9-14,61,54,45,50,48,43,98,80,63,30.14,29.90,14,1,14,0.00
2013-9-15,72,57,42,59,51,42,99,81,52,30.22,30.06,9,0,9,0.00
2013-9-16,70,62,54,59,56,49,97,82,58,30.24,30.01,14,0,14,0.15
2013-9-17,66,52,40,50,44,38,96,75,46,30.42,30.24,13,1,14,0.00
2013-9-18,70,56,42,53,47,40,98,75,47,30.33,30.17,10,0,10,0.00
2013-9-19,77,60,45,61,53,44,98,79,51,30.18,30.05,9,0,9,0.00
2013-9-20,78,65,52,64,58,51,99,81,56,30.07,29.93,10,1,11,0.00
2013-9-21,72,63,57,65,60,56,100,90,72,29.95,29.65,20,3,20,0.68
2013-9-22,67,59,51,60,52,45,100,81,55,29.93,29.68,14,1,15,0.01
2013-9-23,63,54,44,49,45,41,96,72,57,30.06,29.93,12,1,14,0.00
2013-9-24,71,54,40,53,46,39,97,78,47,30.09,29.92,9,1,9,0.00
2013-9-25,74,57,42,57,48,41,97,76,40,29.97,29.86,7,0,7,0.00
2013-9-26,75,59,46,59,53,45,98,82,48,30.06,29.92,9,0,9,0.00
2013-9-27,72,62,55,57,54,51,95,78,55,30.23,30.05,12,1,12,0.00
2013-9-28,73,60,52,58,53,50,97,80,51,30.30,30.21,9,0,11,0.00
2013-9-29,71,58,47,58,52,46,99,82,55,30.21,30.05,8,0,9,0.00
2013-9-30,75,60,49,60,54,48,99,82,49,30.07,29.96,2,0,8,0.00
2013-10-1,77,65,53,64,58,51,97,80,58,30.03,29.92,9,0,12,0.00
2013-10-2,82,70,59,66,61,57,93,76,53,30.02,29.93,14,1,14,0.00
2013-10-3,80,69,58,69,62,56,97,79,55,30.10,30.00,7,0,7,0.00
2013-10-4,83,71,61,69,66,60,98,84,60,30.05,29.96,23,0,29,0.31
2013-10-5,85,72,64,72,67,64,100,86,60,30.06,29.96,6,0,7,0.00
2013-10-6,81,72,65,72,67,64,97,87,70,30.01,29.89,19,5,20,0.00
2013-10-7,71,64,53,69,61,46,99,91,72,30.00,29.68,26,6,28,0.97
2013-10-8,68,55,45,50,47,43,95,75,48,30.29,30.00,13,0,13,0.00
2013-10-9,58,52,46,50,46,43,96,80,61,30.36,30.25,16,1,16,0.00
2013-10-10,57,53,49,56,51,46,99,92,80,30.25,30.00,15,1,16,3.76
2013-10-11,60,57,53,60,56,53,100,99,99,30.04,29.96,21,2,22,4.20
2013-10-12,73,63,58,59,52,45,99,70,45,30.19,30.02,21,3,22,0.00
2013-10-13,68,60,53,55,52,49,88,76,59,30.34,30.18,18,4,20,0.00
2013-10-14,70,55,45,55,49,44,99,84,52,30.34,30.22,4,0,4,0.00
2013-10-15,73,58,46,56,51,46,98,79,49,30.23,30.08,10,0,12,0.00
2013-10-16,64,59,52,60,55,48,93,86,77,30.08,29.88,8,0,8,0.00
2013-10-17,71,64,60,63,61,54,98,91,76,29.88,29.65,20,3,24,0.14
2013-10-18,61,55,48,55,46,42,85,72,53,29.98,29.75,20,2,20,0.00
2013-10-19,60,51,40,53,46,39,97,84,63,29.98,29.73,17,3,19,0.18
2013-10-20,60,50,41,49,41,36,91,71,47,30.06,29.80,17,1,18,0.01
2013-10-21,65,52,38,47,41,36,94,68,44,30.13,29.93,20,2,20,0.00
2013-10-22,59,50,40,50,43,33,94,77,42,29.93,29.77,14,1,16,0.00
2013-10-23,52,43,36,38,35,32,91,75,51,29.82,29.65,13,0,14,0.00
2013-10-24,48,41,36,36,32,29,87,72,53,30.06,29.82,18,1,18,0.00
2013-10-25,51,42,34,38,33,30,86,72,55,30.26,30.06,19,2,19,0.00
2013-10-26,39,38,36,32,31,30,79,76,75,30.25,30.24,1,0,1,0.00
2013-11-14,51,47,41,21,19,18,44,33,27,30.21,30.19,12,1,12,0.00
2013-11-15,56,44,32,32,27,20,74,51,34,30.26,30.16,4,0,5,0.00
2013-11-16,58,48,40,48,43,32,97,82,61,30.31,30.21,13,1,13,0.01
2013-11-17,59,54,48,57,52,47,99,95,88,30.23,29.66,23,6,25,0.04
2013-11-18,62,56,45,60,40,27,97,57,34,29.87,29.61,26,5,27,0.24
2013-11-19,45,40,32,32,27,23,69,60,51,30.36,29.87,27,5,27,0.00
2013-11-20,45,35,25,25,20,13,84,55,32,30.57,30.35,13,1,14,0.00
2013-11-21,44,36,23,39,27,14,84,71,44,30.59,30.36,6,0,6,0.00
2013-11-22,51,47,44,48,44,38,95,89,80,30.37,29.97,24,0,24,0.06
2013-11-23,51,38,25,45,27,9,82,65,48,30.13,29.97,28,6,29,0.00
2013-11-24,28,23,20,13,6,2,70,47,34,30.45,30.13,33,8,34,0.00
2013-11-25,31,25,18,18,14,11,76,62,46,30.52,30.31,13,2,14,0.00
2013-11-26,43,32,30,42,25,14,99,77,52,30.32,29.59,27,2,28,0.34
2013-11-27,46,35,28,46,32,18,99,88,64,29.90,29.46,28,7,31,0.50
2013-11-28,32,28,26,23,19,17,84,69,56,30.46,29.90,24,5,24,0.00
2013-11-29,37,28,21,25,20,16,86,72,55,30.73,30.46,11,0,11,0.00
2013-11-30,34,26,17,26,21,14,91,80,67,30.73,30.36,9,1,14,0.00
2013-12-1,41,32,25,32,28,23,95,84,68,30.36,30.00,2,0,3,0.00
2013-12-2,45,37,34,36,32,30,90,82,68,30.01,29.87,0,0,0,0.00
2013-12-3,52,40,34,40,35,32,93,82,62,30.00,29.88,5,0,5,0.00
2013-12-4,52,43,33,46,39,31,95,86,74,30.10,29.97,11,0,12,0.00
2013-12-5,57,52,47,57,51,46,100,99,95,30.07,29.89,11,2,12,0.01
2013-12-6,58,44,34,57,43,33,100,96,88,30.16,29.85,16,1,17,1.36
2013-12-7,37,32,26,34,28,22,98,85,67,30.53,30.11,17,2,17,0.01
2013-12-8,27,25,23,26,21,17,96,84,72,30.57,30.32,13,1,13,0.00
2013-12-9,33,31,26,32,30,25,99,98,96,30.32,30.01,7,0,7,0.04
2013-12-10,32,29,22,31,26,15,99,88,65,30.17,29.95,13,1,15,0.01
2013-12-11,32,25,18,21,17,13,85,71,59,30.36,30.16,8,0,11,0.00
2013-12-12,26,22,18,21,11,4,86,62,49,30.39,30.18,16,3,17,0.00
2013-12-13,35,27,20,22,15,8,78,60,53,30.32,30.16,15,3,16,0.00
2013-12-14,30,27,24,28,23,20,97,86,70,30.38,29.73,28,4,31,0.00
2013-12-15,31,28,27,29,27,24,97,95,76,29.87,29.60,8,0,12,0.04
2013-12-16,31,23,17,24,12,8,78,62,50,30.20,29.87,26,3,26,0.00
2013-12-17,27,22,18,23,19,13,96,88,64,30.19,29.95,10,0,11,0.00
2013-12-18,35,28,19,24,22,18,96,79,59,30.19,29.97,15,1,18,0.03
2013-12-19,44,33,23,29,25,19,87,73,53,30.18,30.05,10,0,10,0.13
2013-12-20,49,42,33,38,32,28,86,69,56,30.09,29.95,5,0,5,0.13
2013-12-21,59,49,40,56,43,35,96,80,64,29.98,29.85,12,0,14,0.00
2013-12-22,64,61,58,61,58,55,96,92,86,29.94,29.74,26,7,29,0.09
2013-12-23,58,50,34,57,47,28,99,89,75,30.18,29.89,21,2,21,0.59
2013-12-24,35,29,22,28,21,12,92,72,57,30.42,30.15,28,4,28,0.00
2013-12-25,27,22,15,18,12,8,79,67,53,30.55,30.37,12,2,13,0.00
2013-12-26,35,27,21,28,22,17,93,82,72,30.37,30.20,13,2,14,0.01
2013-12-27,42,31,22,27,22,18,84,70,51,30.37,30.28,10,1,11,0.00
2013-12-28,54,44,32,33,27,22,66,53,42,30.28,30.07,18,2,18,0.00
2013-12-29,44,39,36,39,34,28,99,84,53,30.07,29.50,10,0,10,1.01
2013-12-30,41,38,23,39,35,15,93,89,70,30.16,29.74,9,0,9,0.00
2013-12-31,33,25,19,27,17,13,84,71,55,30.31,30.06,27,3,27,0.00
2014-1-1,33,27,19,24,20,13,86,76,66,30.40,30.16,6,0,6,0.00
2014-1-2,29,24,18,24,21,16,94,88,79,30.16,29.67,14,0,16,0.00